Regional Weather Roundup
Issued by NWS Grand Forks, ND

Home | Current Version | Previous Version | Graphics & Text | Print | Product List | Glossary On
Versions: 1 2 3 4 5 6 7 8 9 10 11 12 13 14 15 16 17 18 19 20 21 22 23 24 25 26 27 28 29 30 31 32 33 34 35 36 37 38 39 40 41 42 43 44 45 46 47 48 49 50
000
ASUS43 KFGF 311310
RWRFGF
PRAIRIE TO PINES  WEATHER ROUNDUP
NATIONAL WEATHER SERVICE EASTERN NORTH DAKOTA/GRAND FORKS ND
800 AM CDT FRI OCT 31 2014

 **SATELLITE DATA USED TO AUGMENT SKY COVER AT AUTOMATED STATIONS**
 *****  WEATHER ACROSS EASTERN NORTH DAKOTA  *****

CITY           SKY/WX    TMP DP  RH WIND       PRES   REMARKS
GRAND FORKS    PTCLDY    12   9  87 W6        30.62S WCI   3
GRAND FRKS AFB CLEAR     12  11  93 NW3       30.62R
GRAND FRKS NWS   N/A     14 N/A N/A MISG        N/A
DEVILS LAKE    PTCLDY    16   7  67 E5        30.53F WCI   9
FARGO          CLEAR     15  10  80 CALM      30.61S
WAHPETON ARPT  SUNNY     12   9  85 NW6       30.62R WCI   3
$$

 ***** WEATHER ACROSS CENTRAL AND WESTERN NORTH DAKOTA  *****

CITY           SKY/WX    TMP DP  RH WIND       PRES   REMARKS
BISMARCK       PTCLDY    13  11  92 SE7       30.53F WCI   3
MINOT          PTCLDY    19  14  81 SE9       30.46F WCI   8
JAMESTOWN      PTCLDY    12  10  92 CALM      30.57S
MINOT AFB      PTCLDY    18  16  93 SE13      30.46F WCI   4
GARRISON         N/A     25  21  85 S14G24    30.46F WCI  13
WILLISTON      CLOUDY    30  25  81 SE10G21   30.31F WCI  21
DICKINSON      CLOUDY    27  24  89 S17       30.33F WCI  14
HETTINGER      CLOUDY    27  25  92 SE16G25   30.39F WCI  15
$$

 *****  OTHER AIRPORT OBSERVATIONS IN OUR AREA  *****

CITY           SKY/WX    TMP DP  RH WIND       PRES   REMARKS
WALHALLA         N/A     10  10 100 CALM      30.60F
GRAFTON AIRPOR FAIR      14  10  85 CALM      30.62S
VALLEY CITY AR FAIR      12  12 100 CALM      30.59R
CANDO          FAIR       9   7  92 SE6       30.54F WCI  -1
CAVALIER APRT  FAIR      16  14  93 CALM      30.61F FOG
GWINNER        SUNNY     18  14  86 N6        30.61S WCI   9
SHEYENNE NWR     N/A      9   6  87 CALM      29.95
ROLLA          FAIR      16  16 100 S9        30.50F WCI   4
 ***** THE ABOVE OBSERVATIONS ARE NON NWS ARE NOT QUALITY
       CONTROLLED AND MAY MIS-REPORT RAIN FOR SNOW...
$$

  *****  WEATHER ACROSS NORTHERN MINNESOTA  *****

CITY           SKY/WX    TMP DP  RH WIND       PRES   REMARKS
FLAG ISLAND    CLEAR     27  21  80 CALM      30.56S
WARROAD        MOCLDY    19  16  86 NW5       30.59R WCI  13
ROSEAU         CLEAR     18  12  79 CALM      30.60R
HALLOCK        PTCLDY    14  10  85 CALM      30.61F
THF RVR FALLS  CLEAR     18  16  93 CALM      30.60R
BAUDETTE       CLEAR     21  18  88 CALM      30.57S
WASKISH        CLEAR     16  14  93 CALM      30.56F
CROOKSTON      CLEAR     14  12  92 CALM      30.62S
STEPHEN NDAWN    N/A     10   7  85 NE2         N/A
GREENBUSH NDAW   N/A     16  12  86 SW2         N/A
$$
  *****  WEATHER ACROSS CENTRAL AND WEST MINNESOTA  *****

CITY           SKY/WX    TMP DP  RH WIND       PRES   REMARKS
FOSSTON        CLEAR     12  10  92 CALM      30.60R
BEMIDJI        CLEAR     20  15  80 NE3       30.55S
PARK RAPIDS    CLEAR     21  15  78 NE5       30.54F WCI  15
ELBOW LAKE     FAIR      18  17  95 CALM      30.58S
WADENA         CLEAR     16  14  93 W3        30.55S
DETROIT LAKES  CLEAR     19  18  93 NW3       30.58S
MOORHEAD       CLEAR     16  16 100 CALM      30.62R
FERGUS FALLS   CLEAR     18  16  93 NE3       30.61F
MORRIS MN      NOT AVBL
STAPLES        CLEAR     18  14  86 CALM      30.55S
$$
  *****  WEATHER ELSEWHERE ACROSS MINNESOTA  *****

CITY           SKY/WX    TMP DP  RH WIND       PRES   REMARKS
DULUTH         PTCLDY    25  16  68 N7        30.50R WCI  17
INTRNTL FALLS  PTCLDY    20  16  84 NW5       30.56S WCI  13
ELY            CLOUDY    25  19  80 N8        30.50R WCI  16
CLOQUET        CLEAR     25  16  68 NW9       30.51R WCI  15
WHEATON        CLEAR     16  12  86 NW5       30.63R WCI   9
BRAINERD       CLEAR     24  17  74 NE10      30.54S WCI  14
HIBBING        CLEAR     21  14  74 NW6       30.54R WCI  13
ALEXANDRIA     CLEAR     24  17  74 N8        30.57R WCI  15
SAINT CLOUD    CLEAR     24  16  71 N8        30.53R WCI  15
MINNEAPOLIS    CLEAR     26  16  65 N13       30.52R WCI  15
$$

  *****  WEATHER ACROSS SOUTH DAKOTA  *****

CITY           SKY/WX    TMP DP  RH WIND       PRES   REMARKS
SIOUX FALLS    PTCLDY    20  17  88 N8        30.55F WCI  10
BROOKINGS      NOT AVBL
WATERTOWN      CLEAR     15  13  91 N3        30.55R
HURON          PTCLDY     8   6  92 NW6       30.59F WCI  -2
SISSETON         N/A     16  14  92 N5        30.60R WCI   9
ABERDEEN       PTCLDY    12   8  84 CALM      30.60S
MITCHELL       PTCLDY    16  14  92 W6        30.60S WCI   7
PIERRE         FOG       17  15  92 CALM      30.55F VSB 1/4
MOBRIDGE       PTCLDY    19  14  81 CALM      30.52S
RAPID CITY     CLOUDY    30  29  96 S18       30.38F FOG     WCI  18
$$

  *****  SOME WEATHER IN NEARBY STATES *****

CITY           SKY/WX    TMP DP  RH WIND       PRES   REMARKS
GLASGOW MT     PTCLDY    32  28  85 SE21      30.10F WCI  20
GREAT FALLS MT MOCLDY    57  29  34 S23G32    29.84F
CHEYENNE WY    PTCLDY    30  26  85 S9        30.33F WCI  22
SCOTTSBLUFF NE PTCLDY    29  28  96 E13       30.39F WCI  19
OMAHA NE       CLEAR     28  21  75 N14       30.55R WCI  17
DES MOINES IA  CLEAR     30  16  56 N15G23    30.46R WCI  19
DAVENPORT IA   CLEAR     31  19  61 NW17      30.29R WCI  19
CHICAGO IL     FLURRIES  34  31  88 NW17      30.10R WCI  23
EAU CLAIRE WI  CLEAR     28  18  66 N9        30.42R WCI  19
LA CROSSE WI   PTCLDY    32  20  61 N15       30.40R WCI  22
$$

  *****  SOME NATIONAL WEATHER *****

CITY           SKY/WX    TMP DP  RH WIND       PRES   REMARKS
LA GUARDIA NY  CLOUDY    47  33  58 N9        30.03R
RALEIGH NC     MOSUNNY   46  38  73 NE8       29.96S
ATLANTA GA     PTSUNNY   49  40  71 N7        29.93S
NEW ORLEANS LA PTCLDY    54  50  86 W5        30.06R
OKLAHOMA CITY  PTCLDY    46  38  73 N17G24    30.37R
ALBUQUERQUE NM PTCLDY    52  26  36 NE14G23   30.35R
SALT LAKE CITY PTCLDY    57  22  25 SE14      30.01S
LOS ANGELES CA MOCLDY    64  60  86 CALM      29.95R
BOISE ID       CLOUDY    50  35  56 E5        29.78S
SEATTLE WA     LGT RAIN  50  49  96 NW3       29.70F
$$

*** WEATHER ACROSS MANITOBA...SASKATCHEWAN AND ONTARIO ***
                ***ONTARIO***

CITY           SKY/WX    TMP DP  RH WIND       PRES   REMARKS
GERALDTON      FLURRIES  25  23  93 N12       30.41R WCI  14
THUNDER BAY    PTCLDY    27  19  74 NW9       30.48R WCI  17
SIOUX LOOKOUT  CLOUDY    23  19  86 N8        30.54R WCI  14
TORONTO        LGT RAIN  43  39  87 SE6       29.96R
BIG TROUT LK   CLOUDY    18  16  93 NW9G18    30.46S WCI   6
PICKLE LAKE    FLURRIES  21  18  86 NW6       30.48R WCI  14
DRYDEN         CLOUDY    23  19  86 NW5       30.54S WCI  17
KENORA         MOCLDY    21  18  86 N2        30.56S
$$
                *** MANITOBA***

CITY           SKY/WX    TMP DP  RH WIND       PRES   REMARKS
BRANDON        PTCLDY    10   7  85 SE5       30.51F WCI   2
DAUPHIN        CLEAR     19  16  86 SW3       30.47F
ISLAND LAKE    NOT AVBL
PILOT MOUND      N/A     10  10 100 SE7         N/A  WCI   0
THE PAS        PTCLDY    21  21 100 S10       30.32F WCI  10
THOMPSON       PTCLDY    18  18 100 SW7       30.34F WCI   8
WINNIPEG       PTCLDY    16  12  86 S3        30.60F
LYNN LAKE      PTCLDY    21  19  93 SW9       30.17F WCI  11
CHURCHILL      MOCLDY    23  19  86 SW12      30.20F WCI  12
GILLAM         MOCLDY    16  12  86 SW6       30.35F WCI   7
$$
                ***SASKATCHEWAN***

CITY           SKY/WX    TMP DP  RH WIND       PRES   REMARKS
ESTEVAN        CLOUDY    18  16  93 E9        30.32F WCI   6
KINDERSLEY     MOCLDY    36  32  87 SE18G26   29.85F
LLOYDMINSTER   PTCLDY    34  30  86 SE16G25   29.79F WCI  23
PRINCE ALBERT  MOCLDY    28  23  80 SE9       30.10F WCI  20
REGINA         CLOUDY    25  23  93 SE25G35   30.21F WCI   9
YORKTON        CLEAR     21  18  86 SE13G20   30.34F WCI   9
N. BATTLEFORD  CLOUDY    34  32  93 SE21      29.93F WCI  22
LA RONGE       PTCLDY    28  23  80 SE16      30.07F WCI  17
SASKATOON      CLOUDY    34  28  80 SE24G32   30.03F WCI  21
SWIFT CURRENT  MOCLDY    34  30  86 S30G38    29.92F WCI  20
$$
NOTE: THESE ARE AUTOMATED STATIONS WITH LIMITED QUALITY CONTROL
      "FAIR" INDICATES FEW OR NO CLOUDS BELOW 12,000 FEET WITH NO
      SIGNIFICANT WEATHER AND/OR OBSTRUCTIONS TO VISIBILITY.
      SKY/WX - SKY CONDITION AND SIGNIFICANT WEATHER.
      TMP - AIR TEMPERATURE.    DP   - DEWPOINT TEMPERATURE.
      RH  - RELATIVE HUMIDITY.  PRES - PRESSURE.
      HX  - HEAT INDEX.         WCI  - WIND CHILL INDEX.
$



USA.gov is the U.S. government's official web portal to all federal, state and local government web resources and services.